Flag for U.S.A. Weather past 2 weeks in Germantown, Maryland, U.S.A.

Now
39 °F

More clouds than sun.


Feels Like: 31 °F
Forecast: 19 / 34 °F
Wind: 14 mph from Northwest

Location: Frederick Municipal Airport

Current Time: Jan 30, 2015 at 10:38:22 AM

Latest Report: Jan 30, 2015 at 9:53 AM


Visibility: 10 mi

Pressure: 30.05 "Hg

Humidity: 56%

Dew point: 25 °F

Location of GermantownLocation

Historic Weather in Germantown — Graph

°F

Germantown temperature yesterday

Maximum temperature yesterday: 36 °F (at 1:45 PM)
Minimum temperature yesterday: 12 °F (at 4:05 AM)
Average temperature yesterday: 24 °F

Past Weeks' High & Low Weather Summary

 TemperatureHumidityPressure
High48 °F (Jan 25, 1:45 PM)100% (Jan 17, 6:45 AM)30.44 "Hg (Jan 17, 6:45 AM)
Low12 °F (Jan 29, 4:05 AM)21% (Jan 28, 11:45 AM)29.49 "Hg (Jan 24, 1:51 PM)
Average32 °F70%30.04 "Hg
* Reported Jan 15 9:50 AM — Jan 30 8:46 AM, Germantown, Weather by CustomWeather, © 2014

Note: Actual official high and low records may vary slightly from our data, if they occured in-between our weather recording intervals... More about our weather records

Advertising

Germantown weather history for previous 24 hours

 ConditionsComfort  
Time TempWeatherWind HumidityBarometerVisibility
8:46 AM
Jan 30
37 °FCloudy.8 mph60%30.04 "Hg10 mi
7:47 AM36 °FPartly sunny.12 mph56%30.02 "Hg10 mi
6:45 AM37 °FPartly cloudy.12 mph52%30.01 "Hg10 mi
5:30 AM36 °FPassing clouds.8 mph70%29.97 "Hg10 mi
5:25 AM36 °FPassing clouds.7 mph70%29.97 "Hg10 mi
5:05 AM36 °FClear.7 mph70%29.96 "Hg10 mi
4:45 AM37 °FPassing clouds.7 mph70%29.96 "Hg10 mi
4:25 AM37 °FPartly cloudy.14 mph70%29.95 "Hg10 mi
4:05 AM39 °FOvercast.3 mph65%29.95 "Hg10 mi
3:45 AM39 °FMostly cloudy.8 mph65%29.95 "Hg10 mi
3:25 AM39 °FMostly cloudy.10 mph65%29.94 "Hg10 mi
3:05 AM39 °FMostly cloudy.13 mph65%29.94 "Hg10 mi
2:45 AM36 °FOvercast.3 mph70%29.94 "Hg10 mi
2:25 AM34 °FMostly cloudy.3 mph70%29.94 "Hg10 mi
2:05 AM34 °FOvercast.3 mph75%29.94 "Hg10 mi
1:45 AM34 °FOvercast.3 mph75%29.94 "Hg10 mi
1:25 AM34 °FMostly cloudy.3 mph75%29.93 "Hg10 mi
1:05 AM34 °FMostly cloudy.3 mph75%29.93 "Hg10 mi
12:30 AM34 °FOvercast.3 mph75%29.95 "Hg10 mi
12:25 AM34 °FOvercast.No wind75%29.95 "Hg10 mi
12:05 AM34 °FMostly cloudy.3 mph75%29.95 "Hg10 mi
11:45 PM
Jan 29
34 °FOvercast.No wind75%29.95 "Hg10 mi
11:25 PM34 °FOvercast.3 mph75%29.96 "Hg10 mi
11:05 PM34 °FOvercast.5 mph75%29.96 "Hg10 mi
10:25 PM36 °FOvercast.3 mph56%29.96 "Hg10 mi
9:45 PM36 °FMostly cloudy.No wind56%29.98 "Hg10 mi
9:25 PM36 °FOvercast.3 mph56%29.98 "Hg10 mi
9:05 PM34 °FOvercast.No wind60%29.99 "Hg10 mi
8:45 PM34 °FOvercast.No wind56%30.00 "Hg10 mi
8:25 PM34 °FMostly cloudy.No wind60%30.01 "Hg10 mi
8:05 PM34 °FMostly cloudy.No wind60%30.02 "Hg10 mi
7:52 PM34 °FMostly cloudy.3 mph60%30.02 "Hg10 mi
7:45 PM34 °FOvercast.No wind60%30.03 "Hg10 mi
5:50 PM34 °FOvercast.3 mph60%30.08 "Hg10 mi
4:45 PM32 °FLight snow. More clouds than sun.6 mph60%30.10 "Hg7 mi
3:47 PM34 °FLight snow. Overcast.No wind44%30.10 "Hg7 mi
1:45 PM36 °FOvercast.No windN/AN/A10 mi
12:55 PM32 °FOvercast.No wind44%30.18 "Hg10 mi
11:45 AM28 °FOvercast.3 mph47%30.25 "Hg10 mi
10:47 AM27 °FSunny.No wind50%30.28 "Hg10 mi
Weather by CustomWeather, © 2014

See weather overviewHow to use our weather pages